Location: Augustenthal
(51.7167°N, 10.2833°E)
Time: 04:48:39
(UTC+00:00)

Sich 1 Rocket - Pass Details

Date: 18 May 2021
Orbit: 616 x 653 km, 82.5° (Epoch: 14 June)

Event Time Altitude Azimuth Distance (km) Brightness Sun altitude
Rises 22:14:38 0° 351° (N) 2,973 8.8 -17.3°
Reaches altitude 10° 22:16:56 10° 355° (N) 2,052 7.5 -17.4°
Maximum altitude 22:21:27 60° 76° (ENE) 733 3.9 -17.6°
Enters shadow 22:23:18 33° 143° (SE) 1,074 4.3 -17.6°
